"datetime","temp","dp","rain_mm","uv","solar","mb","wind_mph","gust_mph","windchill","rh"
"2020-02-20 00:00:00",9.3,8.2,0.0,0.0,0,1012.7,2,10,6.9,93
"2020-02-20 00:01:00",9.3,8.2,0.0,0.0,0,1012.6,1,4,8.6,93
"2020-02-20 00:02:00",9.3,8.2,0.0,0.0,0,1012.8,2,7,7.6,93
"2020-02-20 00:03:00",9.3,8.2,0.0,0.0,0,1012.7,1,8,7.3,93
"2020-02-20 00:04:00",9.3,8.2,0.0,0.0,0,1012.7,1,6,7.9,93
"2020-02-20 00:05:00",9.3,8.2,0.0,0.0,0,1012.7,0,2,"",93
"2020-02-20 00:06:00",9.3,8.2,0.0,0.0,0,1012.6,0,1,"",93
"2020-02-20 00:07:00",9.3,8.2,0.0,0.0,0,1012.7,0,0,"",93
"2020-02-20 00:08:00",9.3,8.2,0.0,0.0,0,1012.7,1,6,7.9,93
"2020-02-20 00:09:00",9.3,8.2,0.0,0.0,0,1012.6,0,2,"",93
"2020-02-20 00:10:00",9.3,8.2,0.0,0.0,0,1012.7,0,0,"",93
"2020-02-20 00:11:00",9.3,8.2,0.0,0.0,0,1012.7,0,0,"",93
"2020-02-20 00:12:00",9.3,8.2,0.0,0.0,0,1012.6,1,8,7.3,93
"2020-02-20 00:13:00",9.3,8.2,0.0,0.0,0,1012.6,1,5,8.2,93
"2020-02-20 00:14:00",9.3,8.2,0.0,0.0,0,1012.6,3,13,6.4,93
"2020-02-20 00:15:00",9.3,8.2,0.0,0.0,0,1012.5,0,2,"",93
"2020-02-20 00:16:00",9.3,8.2,0.0,0.0,0,1012.5,0,1,"",93
"2020-02-20 00:17:00",9.3,8.2,0.0,0.0,0,1012.6,1,3,"",93
"2020-02-20 00:18:00",9.3,8.2,0.0,0.0,0,1012.5,1,4,8.6,93
"2020-02-20 00:19:00",9.3,8.2,0.0,0.0,0,1012.5,0,0,"",93
"2020-02-20 00:20:00",9.3,8.2,0.0,0.0,0,1012.6,1,3,"",93
"2020-02-20 00:21:00",9.3,8.2,0.0,0.0,0,1012.6,0,1,"",93
"2020-02-20 00:22:00",9.3,8.2,0.0,0.0,0,1012.5,0,1,"",93
"2020-02-20 00:23:00",9.3,8.2,0.0,0.0,0,1012.5,2,7,7.6,93
"2020-02-20 00:24:00",9.3,8.2,0.0,0.0,0,1012.5,0,1,"",93
"2020-02-20 00:25:00",9.3,8.2,0.0,0.0,0,1012.5,0,0,"",93
"2020-02-20 00:26:00",9.3,8.2,0.0,0.0,0,1012.5,0,0,"",93
"2020-02-20 00:27:00",9.3,8.2,0.0,0.0,0,1012.5,0,1,"",93
"2020-02-20 00:28:00",9.3,8.2,0.0,0.0,0,1012.5,0,0,"",93
"2020-02-20 00:29:00",9.3,8.2,0.0,0.0,0,1012.5,0,2,"",93
"2020-02-20 00:30:00",9.3,8.2,0.0,0.0,0,1012.5,0,0,"",93
"2020-02-20 00:31:00",9.3,8.2,0.0,0.0,0,1012.5,0,0,"",93
"2020-02-20 00:32:00",9.3,8.2,0.0,0.0,0,1012.4,2,4,8.6,93
"2020-02-20 00:33:00",9.3,8.2,0.0,0.0,0,1012.4,1,6,7.9,93
"2020-02-20 00:34:00",9.3,8.2,0.0,0.0,0,1012.4,2,7,7.6,93
"2020-02-20 00:35:00",9.3,8.2,0.0,0.0,0,1012.4,0,1,"",93
"2020-02-20 00:36:00",9.3,8.2,0.0,0.0,0,1012.5,1,3,"",93
"2020-02-20 00:37:00",9.3,8.2,0.0,0.0,0,1012.3,0,2,"",93
"2020-02-20 00:38:00",9.3,8.2,0.0,0.0,0,1012.4,1,7,7.6,93
"2020-02-20 00:39:00",9.3,8.2,0.0,0.0,0,1012.4,1,4,8.6,93
"2020-02-20 00:40:00",9.3,8.2,0.0,0.0,0,1012.4,1,4,8.6,93
"2020-02-20 00:41:00",9.3,8.2,0.0,0.0,0,1012.5,0,3,"",93
"2020-02-20 00:42:00",9.3,8.2,0.0,0.0,0,1012.4,2,7,7.6,93
"2020-02-20 00:43:00",9.3,8.2,0.0,0.0,0,1012.4,0,0,"",93
"2020-02-20 00:44:00",9.3,8.2,0.0,0.0,0,1012.4,0,1,"",93
"2020-02-20 00:45:00",9.3,8.2,0.0,0.0,0,1012.4,1,3,"",93
"2020-02-20 00:46:00",9.3,8.2,0.0,0.0,0,1012.3,2,5,8.2,93
"2020-02-20 00:47:00",9.3,8.2,0.0,0.0,0,1012.2,4,8,7.3,93
"2020-02-20 00:48:00",9.3,8.2,0.0,0.0,0,1012.3,2,5,8.2,93
"2020-02-20 00:49:00",9.3,8.2,0.0,0.0,0,1012.2,1,3,"",93
"2020-02-20 00:50:00",9.3,8.2,0.0,0.0,0,1012.2,0,0,"",93
"2020-02-20 00:51:00",9.3,8.2,0.0,0.0,0,1012.2,0,0,"",93
"2020-02-20 00:52:00",9.3,8.2,0.0,0.0,0,1012.2,1,5,8.2,93
"2020-02-20 00:53:00",9.3,8.2,0.0,0.0,0,1012.2,3,10,6.9,93
"2020-02-20 00:54:00",9.3,8.4,0.0,0.0,0,1012.3,4,10,6.9,94
"2020-02-20 00:55:00",9.3,8.4,0.0,0.0,0,1012.1,2,6,7.9,94
"2020-02-20 00:56:00",9.3,8.4,0.0,0.0,0,1012.1,2,3,"",94
"2020-02-20 00:57:00",9.3,8.4,0.0,0.0,0,1012.1,0,0,"",94
"2020-02-20 00:58:00",9.3,8.2,0.0,0.0,0,1012.1,2,3,"",93
"2020-02-20 00:59:00",9.3,8.4,0.0,0.0,0,1012.1,1,3,"",94
"2020-02-20 01:00:00",9.3,8.4,0.0,0.0,0,1012.1,0,1,"",94
"2020-02-20 01:01:00",9.3,8.4,0.0,0.0,0,1012.1,1,2,"",94
"2020-02-20 01:02:00",9.2,8.3,0.0,0.0,0,1012.1,0,2,"",94
"2020-02-20 01:03:00",9.3,8.4,0.0,0.0,0,1012.1,0,2,"",94
"2020-02-20 01:04:00",9.2,8.3,0.0,0.0,0,1012.1,0,0,"",94
"2020-02-20 01:05:00",9.2,8.3,0.0,0.0,0,1012.1,2,10,6.8,94
"2020-02-20 01:06:00",9.3,8.4,0.0,0.0,0,1012.1,4,8,7.3,94
"2020-02-20 01:07:00",9.3,8.4,0.0,0.0,0,1012.1,3,7,7.5,94
"2020-02-20 01:08:00",9.2,8.3,0.0,0.0,0,1012.0,1,4,8.4,94
"2020-02-20 01:09:00",9.2,8.3,0.0,0.0,0,1012.0,1,4,8.4,94
"2020-02-20 01:10:00",9.2,8.3,0.0,0.0,0,1012.0,0,1,"",94
"2020-02-20 01:11:00",9.2,8.3,0.0,0.0,0,1012.1,0,1,"",94
"2020-02-20 01:12:00",9.3,8.4,0.0,0.0,0,1012.1,0,2,"",94
"2020-02-20 01:13:00",9.2,8.3,0.0,0.0,0,1012.1,0,0,"",94
"2020-02-20 01:14:00",9.2,8.3,0.0,0.0,0,1012.1,2,7,7.5,94
"2020-02-20 01:15:00",9.2,8.3,0.0,0.0,0,1012.0,3,6,7.7,94
"2020-02-20 01:16:00",9.2,8.3,0.0,0.0,0,1012.0,1,3,"",94
"2020-02-20 01:17:00",9.2,8.3,0.0,0.0,0,1012.1,3,6,7.7,94
"2020-02-20 01:18:00",9.2,8.3,0.0,0.0,0,1012.1,2,9,7.0,94
"2020-02-20 01:19:00",9.2,8.3,0.0,0.0,0,1012.1,0,3,"",94
"2020-02-20 01:20:00",9.2,8.3,0.0,0.0,0,1012.1,3,11,6.7,94
"2020-02-20 01:21:00",9.2,8.3,0.0,0.0,0,1012.0,2,5,8.1,94
"2020-02-20 01:22:00",9.2,8.3,0.0,0.0,0,1011.9,4,12,6.4,94
"2020-02-20 01:23:00",9.2,8.3,0.0,0.0,0,1011.9,2,5,8.1,94
"2020-02-20 01:24:00",9.2,8.3,0.0,0.0,0,1012.0,0,2,"",94
"2020-02-20 01:25:00",9.2,8.3,0.0,0.0,0,1012.0,0,1,"",94
"2020-02-20 01:26:00",9.2,8.3,0.0,0.0,0,1012.0,2,10,6.9,94
"2020-02-20 01:27:00",9.2,8.3,0.0,0.0,0,1011.9,1,5,8.1,94
"2020-02-20 01:28:00",9.2,8.3,0.0,0.0,0,1011.9,0,1,"",94
"2020-02-20 01:29:00",9.2,8.3,0.0,0.0,0,1011.9,0,1,"",94
"2020-02-20 01:30:00",9.2,8.3,0.0,0.0,0,1011.9,0,2,"",94
"2020-02-20 01:31:00",9.2,8.3,0.0,0.0,0,1011.9,0,1,"",94
"2020-02-20 01:32:00",9.2,8.3,0.0,0.0,0,1011.9,1,6,7.7,94
"2020-02-20 01:33:00",9.2,8.3,0.0,0.0,0,1011.8,4,8,7.2,94
"2020-02-20 01:34:00",9.2,8.3,0.0,0.0,0,1011.8,1,2,"",94
"2020-02-20 01:35:00",9.2,8.3,0.0,0.0,0,1011.8,1,2,"",94
"2020-02-20 01:36:00",9.2,8.3,0.0,0.0,0,1011.8,3,6,7.7,94
"2020-02-20 01:37:00",9.2,8.3,0.0,0.0,0,1011.7,0,4,8.4,94
"2020-02-20 01:38:00",9.2,8.3,0.0,0.0,0,1011.7,0,2,"",94
"2020-02-20 01:39:00",9.2,8.3,0.0,0.0,0,1011.7,0,1,"",94
"2020-02-20 01:40:00",9.2,8.3,0.0,0.0,0,1011.7,0,1,"",94
"2020-02-20 01:41:00",9.2,8.3,0.0,0.0,0,1011.7,0,0,"",94
"2020-02-20 01:42:00",9.2,8.3,0.0,0.0,0,1011.6,0,6,7.7,94
"2020-02-20 01:43:00",9.2,8.3,0.0,0.0,0,1011.6,1,2,"",94
"2020-02-20 01:44:00",9.2,8.3,0.0,0.0,0,1011.6,0,0,"",94
"2020-02-20 01:45:00",9.2,8.3,0.0,0.0,0,1011.6,0,0,"",94
"2020-02-20 01:46:00",9.2,8.3,0.0,0.0,0,1011.5,1,2,"",94
"2020-02-20 01:47:00",9.2,8.3,0.0,0.0,0,1011.5,0,1,"",94
"2020-02-20 01:48:00",9.2,8.3,0.0,0.0,0,1011.5,1,4,8.4,94
"2020-02-20 01:49:00",9.2,8.3,0.0,0.0,0,1011.5,2,5,8.1,94
"2020-02-20 01:50:00",9.2,8.3,0.0,0.0,0,1011.5,0,2,"",94
"2020-02-20 01:51:00",9.2,8.3,0.0,0.0,0,1011.5,0,2,"",94
"2020-02-20 01:52:00",9.2,8.3,0.0,0.0,0,1011.5,3,7,7.5,94
"2020-02-20 01:53:00",9.2,8.3,0.0,0.0,0,1011.5,1,5,8.1,94
"2020-02-20 01:54:00",9.2,8.3,0.0,0.0,0,1011.5,2,4,8.4,94
"2020-02-20 01:55:00",9.2,8.3,0.0,0.0,0,1011.4,2,5,8.1,94
"2020-02-20 01:56:00",9.2,8.3,0.0,0.0,0,1011.5,0,3,"",94
"2020-02-20 01:57:00",9.2,8.3,0.0,0.0,0,1011.4,0,2,"",94
"2020-02-20 01:58:00",9.2,8.3,0.0,0.0,0,1011.3,1,3,"",94
"2020-02-20 01:59:00",9.2,8.3,0.0,0.0,0,1011.4,2,8,7.2,94
"2020-02-20 02:00:00",9.2,8.3,0.0,0.0,0,1011.2,2,8,7.2,94
"2020-02-20 02:01:00",9.2,8.3,0.0,0.0,0,1011.4,2,12,6.4,94
"2020-02-20 02:02:00",9.2,8.3,0.0,0.0,0,1011.3,0,1,"",94
"2020-02-20 02:03:00",9.2,8.3,0.2,0.0,0,1011.2,0,2,"",94
"2020-02-20 02:04:00",9.2,8.3,0.2,0.0,0,1011.3,0,2,"",94
"2020-02-20 02:05:00",9.2,8.3,0.2,0.0,0,1011.2,2,3,"",94
"2020-02-20 02:06:00",9.2,8.3,0.2,0.0,0,1011.2,2,4,8.4,94
"2020-02-20 02:07:00",9.2,8.3,0.2,0.0,0,1011.1,1,2,"",94
"2020-02-20 02:08:00",9.2,8.3,0.2,0.0,0,1011.2,0,1,"",94
"2020-02-20 02:09:00",9.2,8.3,0.2,0.0,0,1011.1,0,1,"",94
"2020-02-20 02:10:00",9.2,8.3,0.2,0.0,0,1011.2,0,2,"",94
"2020-02-20 02:11:00",9.2,8.3,0.2,0.0,0,1011.2,3,6,7.7,94
"2020-02-20 02:12:00",9.2,8.3,0.2,0.0,0,1011.2,0,4,8.4,94
"2020-02-20 02:13:00",9.2,8.3,0.2,0.0,0,1011.1,1,4,8.4,94
"2020-02-20 02:14:00",9.2,8.3,0.2,0.0,0,1011.1,2,5,8.1,94
"2020-02-20 02:15:00",9.2,8.3,0.2,0.0,0,1011.2,0,2,"",94
"2020-02-20 02:16:00",9.2,8.3,0.2,0.0,0,1011.1,2,5,8.1,94
"2020-02-20 02:17:00",9.1,8.2,0.2,0.0,0,1011.1,1,4,8.4,94
"2020-02-20 02:18:00",9.2,8.3,0.2,0.0,0,1011.0,1,2,"",94
"2020-02-20 02:19:00",9.2,8.3,0.2,0.0,0,1011.1,0,0,"",94
"2020-02-20 02:20:00",9.2,8.3,0.2,0.0,0,1011.0,0,1,"",94
"2020-02-20 02:21:00",9.1,8.2,0.2,0.0,0,1011.0,0,0,"",94
"2020-02-20 02:22:00",9.1,8.2,0.2,0.0,0,1011.0,1,4,8.4,94
"2020-02-20 02:23:00",9.2,8.3,0.2,0.0,0,1011.0,2,4,8.4,94
"2020-02-20 02:24:00",9.2,8.3,0.2,0.0,0,1011.1,3,11,6.6,94
"2020-02-20 02:25:00",9.2,8.3,0.2,0.0,0,1011.0,1,2,"",94
"2020-02-20 02:26:00",9.1,8.2,0.2,0.0,0,1011.0,1,4,8.3,94
"2020-02-20 02:27:00",9.1,8.2,0.2,0.0,0,1011.0,2,6,7.7,94
"2020-02-20 02:28:00",9.2,8.3,0.2,0.0,0,1011.0,2,8,7.1,94
"2020-02-20 02:29:00",9.1,8.2,0.2,0.0,0,1010.9,3,7,7.5,94
"2020-02-20 02:30:00",9.1,8.2,0.2,0.0,0,1011.0,0,3,"",94
"2020-02-20 02:31:00",9.1,8.2,0.2,0.0,0,1010.9,2,4,8.3,94
"2020-02-20 02:32:00",9.1,8.2,0.2,0.0,0,1010.9,1,4,8.4,94
"2020-02-20 02:33:00",9.2,8.3,0.2,0.0,0,1010.9,2,4,8.4,94
"2020-02-20 02:34:00",9.2,8.3,0.2,0.0,0,1010.9,2,8,7.1,94
"2020-02-20 02:35:00",9.1,8.2,0.2,0.0,0,1010.9,0,0,"",94
"2020-02-20 02:36:00",9.1,8.2,0.2,0.0,0,1010.9,0,1,"",94
"2020-02-20 02:37:00",9.1,8.2,0.2,0.0,0,1010.8,0,3,"",94
"2020-02-20 02:38:00",9.1,8.2,0.2,0.0,0,1010.9,0,3,"",94
"2020-02-20 02:39:00",9.1,8.2,0.2,0.0,0,1010.9,6,10,6.7,94
"2020-02-20 02:40:00",9.1,8.2,0.2,0.0,0,1010.9,1,3,"",94
"2020-02-20 02:41:00",9.1,8.2,0.2,0.0,0,1010.9,0,0,"",94
"2020-02-20 02:42:00",9.1,8.2,0.2,0.0,0,1010.9,3,8,7.1,94
"2020-02-20 02:43:00",9.1,8.2,0.2,0.0,0,1010.9,3,4,8.3,94
"2020-02-20 02:44:00",9.1,8.2,0.2,0.0,0,1010.9,4,5,7.9,94
"2020-02-20 02:45:00",9.1,8.2,0.2,0.0,0,1010.8,1,4,8.3,94
"2020-02-20 02:46:00",9.1,8.2,0.2,0.0,0,1010.8,1,3,"",94
"2020-02-20 02:47:00",9.1,8.2,0.2,0.0,0,1010.8,1,3,"",94
"2020-02-20 02:48:00",9.1,8.2,0.2,0.0,0,1010.8,2,6,7.6,94
"2020-02-20 02:49:00",9.1,8.2,0.2,0.0,0,1010.8,1,4,8.3,94
"2020-02-20 02:50:00",9.1,8.2,0.2,0.0,0,1010.8,2,5,7.9,94
"2020-02-20 02:51:00",9.0,8.1,0.2,0.0,0,1010.8,0,1,"",94
"2020-02-20 02:52:00",9.1,8.2,0.2,0.0,0,1010.8,0,3,"",94
"2020-02-20 02:53:00",9.1,8.2,0.2,0.0,0,1010.7,1,3,"",94
"2020-02-20 02:54:00",9.0,8.1,0.2,0.0,0,1010.8,0,1,"",94
"2020-02-20 02:55:00",9.0,8.1,0.2,0.0,0,1010.7,3,5,7.8,94
"2020-02-20 02:56:00",9.0,8.1,0.2,0.0,0,1010.7,3,8,7.0,94
"2020-02-20 02:57:00",9.0,8.1,0.2,0.0,0,1010.7,0,0,"",94
"2020-02-20 02:58:00",9.0,8.1,0.2,0.0,0,1010.7,0,1,"",94
"2020-02-20 02:59:00",8.9,8.0,0.2,0.0,0,1010.7,2,8,7.0,94
"2020-02-20 03:00:00",8.9,8.0,0.2,0.0,0,1010.8,3,8,6.8,94
"2020-02-20 03:01:00",8.9,8.0,0.2,0.0,0,1010.7,3,5,7.8,94
"2020-02-20 03:02:00",8.9,8.0,0.2,0.0,0,1010.7,0,2,"",94
"2020-02-20 03:03:00",8.9,8.0,0.2,0.0,0,1010.7,1,3,"",94
"2020-02-20 03:04:00",8.9,8.0,0.2,0.0,0,1010.6,1,3,"",94
"2020-02-20 03:05:00",8.9,8.0,0.2,0.0,0,1010.6,2,6,7.4,94
"2020-02-20 03:06:00",8.9,8.0,0.2,0.0,0,1010.6,2,7,7.1,94
"2020-02-20 03:07:00",8.9,8.0,0.2,0.0,0,1010.6,1,2,"",94
"2020-02-20 03:08:00",8.9,8.0,0.2,0.0,0,1010.5,2,8,6.8,94
"2020-02-20 03:09:00",8.9,8.0,0.2,0.0,0,1010.6,2,5,7.7,94
"2020-02-20 03:10:00",8.9,8.0,0.2,0.0,0,1010.5,4,9,6.6,94
"2020-02-20 03:11:00",8.9,8.0,0.2,0.0,0,1010.5,2,6,7.4,94
"2020-02-20 03:12:00",8.9,8.0,0.2,0.0,0,1010.4,1,4,8.1,94
"2020-02-20 03:13:00",8.9,8.0,0.2,0.0,0,1010.5,3,5,7.7,94
"2020-02-20 03:14:00",8.9,8.0,0.2,0.0,0,1010.6,1,3,"",94
"2020-02-20 03:15:00",8.9,8.0,0.2,0.0,0,1010.5,2,5,7.7,94
"2020-02-20 03:16:00",8.9,8.0,0.2,0.0,0,1010.6,2,4,8.1,94
"2020-02-20 03:17:00",8.9,8.0,0.2,0.0,0,1010.6,3,11,6.2,94
"2020-02-20 03:18:00",8.9,8.0,0.2,0.0,0,1010.5,1,3,"",94
"2020-02-20 03:19:00",8.9,8.0,0.2,0.0,0,1010.5,1,2,"",94
"2020-02-20 03:20:00",8.9,8.0,0.2,0.0,0,1010.5,4,8,6.8,94
"2020-02-20 03:21:00",8.9,8.0,0.2,0.0,0,1010.5,2,4,8.1,94
"2020-02-20 03:22:00",8.8,7.9,0.2,0.0,0,1010.5,3,6,7.3,94
"2020-02-20 03:23:00",8.8,7.9,0.2,0.0,0,1010.4,3,6,7.3,94
"2020-02-20 03:24:00",8.8,7.9,0.2,0.0,0,1010.5,2,6,7.3,94
"2020-02-20 03:25:00",8.8,7.9,0.2,0.0,0,1010.5,3,9,6.5,94
"2020-02-20 03:26:00",8.8,7.9,0.2,0.0,0,1010.4,2,7,7.0,94
"2020-02-20 03:27:00",8.8,7.9,0.2,0.0,0,1010.5,1,2,"",94
"2020-02-20 03:28:00",8.8,7.9,0.2,0.0,0,1010.5,2,5,7.6,94
"2020-02-20 03:29:00",8.8,7.9,0.2,0.0,0,1010.5,1,3,"",94
"2020-02-20 03:30:00",8.8,7.9,0.2,0.0,0,1010.5,1,5,7.6,94
"2020-02-20 03:31:00",8.8,7.9,0.2,0.0,0,1010.5,1,3,"",94
"2020-02-20 03:32:00",8.8,7.9,0.2,0.0,0,1010.4,2,4,8.0,94
"2020-02-20 03:33:00",8.8,7.9,0.2,0.0,0,1010.5,2,4,8.0,94
"2020-02-20 03:34:00",8.8,7.9,0.2,0.0,0,1010.4,2,4,8.0,94
"2020-02-20 03:35:00",8.8,7.9,0.2,0.0,0,1010.5,2,5,7.6,94
"2020-02-20 03:36:00",8.8,7.9,0.2,0.0,0,1010.5,4,8,6.7,94
"2020-02-20 03:37:00",8.8,7.9,0.2,0.0,0,1010.6,4,10,6.3,94
"2020-02-20 03:38:00",8.8,7.9,0.2,0.0,0,1010.6,1,4,8.0,94
"2020-02-20 03:39:00",8.8,7.9,0.2,0.0,0,1010.5,1,4,8.0,94
"2020-02-20 03:40:00",8.8,7.9,0.2,0.0,0,1010.5,4,6,7.3,94
"2020-02-20 03:41:00",8.8,7.9,0.2,0.0,0,1010.4,3,5,7.6,94
"2020-02-20 03:42:00",8.8,7.9,0.2,0.0,0,1010.5,2,5,7.6,94
"2020-02-20 03:43:00",8.8,7.9,0.2,0.0,0,1010.5,2,6,7.3,94
"2020-02-20 03:44:00",8.8,7.9,0.2,0.0,0,1010.5,2,3,"",94
"2020-02-20 03:45:00",8.8,7.9,0.2,0.0,0,1010.6,0,0,"",94
"2020-02-20 03:46:00",8.8,7.9,0.2,0.0,0,1010.5,0,0,"",94
"2020-02-20 03:48:00",8.8,7.9,0.2,0.0,0,1010.6,0,2,"",94
"2020-02-20 03:49:00",8.8,7.9,0.2,0.0,0,1010.6,1,2,"",94
"2020-02-20 03:50:00",8.8,7.9,0.2,0.0,0,1010.5,1,4,8.0,94
"2020-02-20 03:51:00",8.8,7.9,0.2,0.0,0,1010.5,4,7,7.0,94
"2020-02-20 03:52:00",8.8,7.9,0.2,0.0,0,1010.6,3,7,7.0,94
"2020-02-20 03:53:00",8.8,7.9,0.2,0.0,0,1010.4,4,7,7.0,94
"2020-02-20 03:54:00",8.8,7.9,0.2,0.0,0,1010.4,5,9,6.5,94
"2020-02-20 03:55:00",8.8,7.9,0.2,0.0,0,1010.5,4,9,6.5,94
"2020-02-20 03:56:00",8.8,7.9,0.2,0.0,0,1010.4,3,6,7.4,94
"2020-02-20 03:57:00",8.9,8.0,0.2,0.0,0,1010.3,2,4,8.1,94
"2020-02-20 03:58:00",8.9,8.0,0.2,0.0,0,1010.3,2,5,7.7,94
"2020-02-20 03:59:00",8.9,8.0,0.2,0.0,0,1010.3,3,7,7.0,94
"2020-02-20 04:00:00",8.9,8.0,0.2,0.0,0,1010.2,3,13,5.9,94
"2020-02-20 04:01:00",8.9,8.0,0.2,0.0,0,1010.2,2,11,6.2,94
"2020-02-20 04:02:00",8.9,8.0,0.2,0.0,0,1010.1,4,10,6.4,94
"2020-02-20 04:03:00",8.9,8.0,0.2,0.0,0,1010.1,7,10,6.4,94
"2020-02-20 04:04:00",8.9,8.0,0.2,0.0,0,1010.1,3,8,6.8,94
"2020-02-20 04:05:00",8.9,8.0,0.2,0.0,0,1010.0,2,3,"",94
"2020-02-20 04:06:00",8.9,8.0,0.2,0.0,0,1010.1,4,8,6.8,94
"2020-02-20 04:07:00",8.9,8.0,0.2,0.0,0,1009.9,1,3,"",94
"2020-02-20 04:08:00",8.9,8.0,0.2,0.0,0,1010.0,4,10,6.4,94
"2020-02-20 04:09:00",8.9,8.0,0.2,0.0,0,1009.9,8,15,5.6,94
"2020-02-20 04:10:00",8.9,8.0,0.2,0.0,0,1010.0,3,6,7.4,94
"2020-02-20 04:11:00",8.9,8.0,0.2,0.0,0,1009.9,5,7,7.1,94
"2020-02-20 04:12:00",8.9,8.0,0.2,0.0,0,1010.0,5,11,6.2,94
"2020-02-20 04:13:00",8.9,8.0,0.2,0.0,0,1009.9,3,7,7.1,94
"2020-02-20 04:14:00",8.9,8.0,0.2,0.0,0,1009.9,2,4,8.1,94
"2020-02-20 04:15:00",8.9,8.0,0.2,0.0,0,1009.9,2,3,"",94
"2020-02-20 04:16:00",8.9,8.0,0.2,0.0,0,1009.9,2,5,7.7,94
"2020-02-20 04:17:00",8.9,8.0,0.2,0.0,0,1009.9,3,8,6.8,94
"2020-02-20 04:18:00",8.9,8.0,0.2,0.0,0,1009.8,3,8,6.8,94
"2020-02-20 04:19:00",8.9,8.0,0.2,0.0,0,1009.7,3,5,7.7,94
"2020-02-20 04:20:00",8.9,8.0,0.2,0.0,0,1009.8,2,4,8.1,94
"2020-02-20 04:21:00",8.9,8.0,0.2,0.0,0,1009.9,5,12,6.1,94
"2020-02-20 04:22:00",8.9,8.0,0.2,0.0,0,1009.8,4,6,7.4,94
"2020-02-20 04:23:00",8.9,8.0,0.2,0.0,0,1009.8,3,6,7.4,94
"2020-02-20 04:24:00",8.9,8.0,0.2,0.0,0,1009.8,2,4,8.1,94
"2020-02-20 04:25:00",8.9,8.0,0.2,0.0,0,1009.9,4,11,6.2,94
"2020-02-20 04:26:00",8.9,8.0,0.2,0.0,0,1009.8,2,7,7.1,94
"2020-02-20 04:27:00",8.9,8.0,0.2,0.0,0,1009.8,2,4,8.1,94
"2020-02-20 04:28:00",8.9,8.0,0.2,0.0,0,1009.8,2,4,8.1,94
"2020-02-20 04:29:00",8.9,8.0,0.2,0.0,0,1009.8,3,5,7.7,94
"2020-02-20 04:30:00",9.0,8.1,0.2,0.0,0,1009.7,5,10,6.4,94
"2020-02-20 04:31:00",8.9,8.0,0.2,0.0,0,1009.8,2,5,7.8,94
"2020-02-20 04:32:00",8.9,8.0,0.2,0.0,0,1009.7,2,5,7.7,94
"2020-02-20 04:33:00",8.9,8.0,0.2,0.0,0,1009.7,2,4,8.1,94
"2020-02-20 04:34:00",8.9,8.0,0.2,0.0,0,1009.7,3,8,6.8,94
"2020-02-20 04:35:00",9.0,8.1,0.2,0.0,0,1009.7,4,6,7.4,94
"2020-02-20 04:36:00",8.9,8.0,0.2,0.0,0,1009.6,2,6,7.4,94
"2020-02-20 04:37:00",8.9,8.0,0.2,0.0,0,1009.7,3,5,7.7,94
"2020-02-20 04:38:00",8.9,8.0,0.2,0.0,0,1009.7,4,9,6.6,94
"2020-02-20 04:39:00",8.9,8.0,0.2,0.0,0,1009.7,3,5,7.8,94
"2020-02-20 04:40:00",9.0,8.1,0.2,0.0,0,1009.7,2,7,7.2,94
"2020-02-20 04:41:00",9.0,8.1,0.2,0.0,0,1009.7,1,4,8.2,94
"2020-02-20 04:42:00",8.9,8.0,0.2,0.0,0,1009.7,2,8,6.8,94
"2020-02-20 04:43:00",8.9,8.0,0.2,0.0,0,1009.7,3,10,6.5,94
"2020-02-20 04:44:00",8.9,8.0,0.2,0.0,0,1009.7,1,6,7.4,94
"2020-02-20 04:45:00",9.0,8.1,0.2,0.0,0,1009.7,3,6,7.4,94
"2020-02-20 04:46:00",9.0,8.1,0.2,0.0,0,1009.7,4,7,7.2,94
"2020-02-20 04:47:00",9.0,8.1,0.2,0.0,0,1009.7,4,9,6.7,94
"2020-02-20 04:48:00",9.0,8.1,0.2,0.0,0,1009.7,2,5,7.8,94
"2020-02-20 04:49:00",9.0,8.1,0.2,0.0,0,1009.7,2,6,7.5,94
"2020-02-20 04:50:00",9.0,8.1,0.2,0.0,0,1009.7,3,7,7.2,94
"2020-02-20 04:51:00",9.0,8.1,0.2,0.0,0,1009.7,3,5,7.8,94
"2020-02-20 04:52:00",9.0,8.1,0.2,0.0,0,1009.6,2,6,7.5,94
"2020-02-20 04:53:00",9.0,8.1,0.2,0.0,0,1009.7,3,5,7.8,94
"2020-02-20 04:54:00",9.0,8.1,0.2,0.0,0,1009.7,3,5,7.8,94
"2020-02-20 04:55:00",9.0,8.1,0.2,0.0,0,1009.7,3,5,7.8,94
"2020-02-20 04:56:00",9.0,8.1,0.2,0.0,0,1009.7,4,5,7.8,94
"2020-02-20 04:57:00",9.0,8.1,0.2,0.0,0,1009.7,2,5,7.8,94
"2020-02-20 04:58:00",9.0,8.1,0.2,0.0,0,1009.6,3,9,6.7,94
"2020-02-20 04:59:00",9.0,8.1,0.2,0.0,0,1009.6,4,8,7.0,94
"2020-02-20 05:00:00",9.0,8.1,0.2,0.0,0,1009.5,3,7,7.2,94
"2020-02-20 05:01:00",9.0,8.1,0.2,0.0,0,1009.5,3,5,7.8,94
"2020-02-20 05:02:00",9.0,8.1,0.2,0.0,0,1009.6,4,13,6.0,94
"2020-02-20 05:03:00",9.0,8.1,0.2,0.0,0,1009.5,3,5,7.8,94
"2020-02-20 05:04:00",9.0,8.1,0.2,0.0,0,1009.5,2,5,7.8,94
"2020-02-20 05:05:00",8.9,8.0,0.2,0.0,0,1009.5,1,2,"",94
"2020-02-20 05:06:00",9.0,8.1,0.2,0.0,0,1009.5,0,1,"",94
"2020-02-20 05:07:00",9.0,8.1,0.2,0.0,0,1009.5,0,0,"",94
"2020-02-20 05:08:00",9.0,8.1,0.2,0.0,0,1009.4,2,9,6.7,94
"2020-02-20 05:09:00",8.9,8.0,0.2,0.0,0,1009.4,1,4,8.1,94
"2020-02-20 05:10:00",9.0,8.1,0.2,0.0,0,1009.4,2,4,8.1,94
"2020-02-20 05:11:00",9.0,8.1,0.2,0.0,0,1009.4,3,4,8.1,94
"2020-02-20 05:12:00",9.0,8.1,0.4,0.0,0,1009.5,6,13,6.0,94
"2020-02-20 05:13:00",8.9,8.0,0.4,0.0,0,1009.5,2,4,8.1,94
"2020-02-20 05:14:00",8.9,8.0,0.4,0.0,0,1009.5,2,3,"",94
"2020-02-20 05:15:00",8.9,8.0,0.4,0.0,0,1009.5,2,4,8.2,94
"2020-02-20 05:16:00",8.9,8.0,0.4,0.0,0,1009.5,2,3,"",94
"2020-02-20 05:17:00",8.9,8.0,0.4,0.0,0,1009.5,2,3,"",94
"2020-02-20 05:18:00",8.9,8.0,0.4,0.0,0,1009.4,1,2,"",94
"2020-02-20 05:19:00",8.9,8.0,0.4,0.0,0,1009.5,5,9,6.6,94
"2020-02-20 05:20:00",8.9,8.0,0.4,0.0,0,1009.4,4,6,7.4,94
"2020-02-20 05:21:00",8.9,8.0,0.4,0.0,0,1009.3,2,4,8.1,94
"2020-02-20 05:22:00",8.9,8.0,0.4,0.0,0,1009.4,2,4,8.1,94
"2020-02-20 05:23:00",9.0,8.1,0.4,0.0,0,1009.4,4,7,7.1,94
"2020-02-20 05:24:00",8.9,8.1,0.4,0.0,0,1009.4,4,7,7.2,95
"2020-02-20 05:25:00",8.9,8.1,0.4,0.0,0,1009.5,2,5,7.7,95
"2020-02-20 05:26:00",8.9,8.1,0.4,0.0,0,1009.4,4,10,6.4,95
"2020-02-20 05:27:00",8.9,8.1,0.4,0.0,0,1009.4,3,4,8.1,95
"2020-02-20 05:28:00",8.9,8.1,0.4,0.0,0,1009.3,3,7,7.1,95
"2020-02-20 05:29:00",8.9,8.1,0.6,0.0,0,1009.3,2,13,5.9,95
"2020-02-20 05:30:00",8.9,8.1,0.6,0.0,0,1009.3,5,13,5.9,95
"2020-02-20 05:31:00",8.9,8.1,0.6,0.0,0,1009.3,4,10,6.4,95
"2020-02-20 05:32:00",8.9,8.1,0.6,0.0,0,1009.3,4,9,6.6,95
"2020-02-20 05:33:00",8.9,8.1,0.6,0.0,0,1009.3,6,13,5.9,95
"2020-02-20 05:34:00",8.9,8.1,0.6,0.0,0,1009.4,5,14,5.7,95
"2020-02-20 05:35:00",8.9,8.1,0.6,0.0,0,1009.3,3,5,7.7,95
"2020-02-20 05:36:00",8.9,8.1,0.6,0.0,0,1009.3,4,9,6.6,95
"2020-02-20 05:37:00",8.9,8.1,0.6,0.0,0,1009.3,2,3,"",95
"2020-02-20 05:38:00",8.9,8.1,0.6,0.0,0,1009.3,2,5,7.7,95
"2020-02-20 05:39:00",8.9,8.1,0.6,0.0,0,1009.3,2,4,8.1,95
"2020-02-20 05:40:00",8.9,8.1,0.6,0.0,0,1009.3,2,4,8.1,95
"2020-02-20 05:41:00",8.9,8.0,0.6,0.0,0,1009.3,2,4,8.1,94
"2020-02-20 05:42:00",8.9,8.1,0.6,0.0,0,1009.3,2,3,"",95
"2020-02-20 05:43:00",8.9,8.1,0.6,0.0,0,1009.2,4,10,6.4,95
"2020-02-20 05:44:00",8.9,8.1,0.6,0.0,0,1009.2,4,7,7.1,95
"2020-02-20 05:45:00",8.9,8.1,0.6,0.0,0,1009.3,6,9,6.6,95
"2020-02-20 05:46:00",8.9,8.1,0.6,0.0,0,1009.3,2,4,8.1,95
"2020-02-20 05:47:00",8.9,8.1,0.6,0.0,0,1009.1,6,15,5.6,95
"2020-02-20 05:48:00",8.9,8.1,0.6,0.0,0,1009.1,3,6,7.4,95
"2020-02-20 05:49:00",8.9,8.1,0.6,0.0,0,1009.2,3,7,7.1,95
"2020-02-20 05:50:00",8.9,8.1,0.6,0.0,0,1009.2,2,6,7.4,95
"2020-02-20 05:51:00",8.9,8.1,0.6,0.0,0,1009.2,4,12,6.1,95
"2020-02-20 05:52:00",8.9,8.1,0.6,0.0,0,1009.2,6,15,5.6,95
"2020-02-20 05:53:00",8.9,8.1,0.6,0.0,0,1009.2,3,5,7.7,95
"2020-02-20 05:54:00",8.9,8.1,0.6,0.0,0,1009.1,5,7,7.1,95
"2020-02-20 05:55:00",8.9,8.1,0.6,0.0,0,1009.1,5,9,6.6,95
"2020-02-20 05:56:00",8.9,8.1,0.6,0.0,0,1009.1,3,6,7.4,95
"2020-02-20 05:57:00",8.9,8.1,0.6,0.0,0,1009.2,4,6,7.3,95
"2020-02-20 05:58:00",8.9,8.1,0.6,0.0,0,1009.1,3,7,7.1,95
"2020-02-20 05:59:00",8.9,8.1,0.6,0.0,0,1009.2,2,5,7.7,95
"2020-02-20 06:00:00",8.9,8.1,0.6,0.0,0,1009.1,4,7,7.1,95
"2020-02-20 06:01:00",8.9,8.1,0.6,0.0,0,1009.1,2,4,8.1,95
"2020-02-20 06:02:00",8.9,8.1,0.6,0.0,0,1009.1,4,7,7.0,95
"2020-02-20 06:03:00",8.8,8.0,0.6,0.0,0,1009.1,4,5,7.6,95
"2020-02-20 06:04:00",8.8,8.0,0.6,0.0,0,1009.0,2,5,7.6,95
"2020-02-20 06:05:00",8.9,8.1,0.6,0.0,0,1009.0,2,6,7.3,95
"2020-02-20 06:06:00",8.9,8.1,0.6,0.0,0,1009.0,4,9,6.6,95
"2020-02-20 06:07:00",8.8,8.0,0.6,0.0,0,1009.1,5,12,6.1,95
"2020-02-20 06:08:00",8.9,8.1,0.6,0.0,0,1009.1,7,13,5.9,95
"2020-02-20 06:09:00",8.8,8.0,0.6,0.0,0,1009.1,4,7,7.0,95
"2020-02-20 06:10:00",8.9,8.1,0.6,0.0,0,1009.0,3,6,7.3,95
"2020-02-20 06:11:00",8.8,8.0,0.6,0.0,0,1009.1,4,8,6.8,95
"2020-02-20 06:12:00",8.9,8.1,0.8,0.0,0,1009.0,3,5,7.6,95
"2020-02-20 06:13:00",8.9,8.1,0.8,0.0,0,1009.0,2,5,7.6,95
"2020-02-20 06:14:00",8.8,8.0,0.8,0.0,0,1009.0,2,7,7.0,95
"2020-02-20 06:15:00",8.9,8.1,0.8,0.0,0,1008.9,5,11,6.1,95
"2020-02-20 06:16:00",8.9,8.1,0.8,0.0,0,1009.0,4,6,7.3,95
"2020-02-20 06:17:00",8.8,8.0,0.8,0.0,0,1008.9,2,4,8.1,95
"2020-02-20 06:18:00",8.9,8.1,0.8,0.0,0,1008.9,3,5,7.6,95
"2020-02-20 06:19:00",8.8,8.0,0.8,0.0,0,1009.0,5,10,6.4,95
"2020-02-20 06:20:00",8.9,8.1,0.8,0.0,0,1008.9,2,4,8.0,95
"2020-02-20 06:21:00",8.9,8.1,0.8,0.0,0,1009.0,5,7,7.0,95
"2020-02-20 06:22:00",8.9,8.1,0.8,0.0,0,1008.9,3,5,7.6,95
"2020-02-20 06:23:00",8.9,8.1,0.8,0.0,0,1009.0,5,11,6.2,95
"2020-02-20 06:24:00",8.9,8.1,0.8,0.0,0,1008.8,4,16,5.3,95
"2020-02-20 06:25:00",8.9,8.1,0.8,0.0,0,1008.9,1,2,"",95
"2020-02-20 06:26:00",8.9,8.1,0.8,0.0,0,1008.9,2,4,8.1,95
"2020-02-20 06:27:00",8.9,8.1,1.0,0.0,0,1008.9,1,3,"",95
"2020-02-20 06:28:00",8.9,8.1,1.0,0.0,0,1008.9,2,4,8.0,95
"2020-02-20 06:29:00",8.8,8.0,1.0,0.0,0,1008.9,4,11,6.1,95
"2020-02-20 06:30:00",8.9,8.1,1.0,0.0,0,1008.8,2,9,6.6,95
"2020-02-20 06:31:00",8.8,8.0,1.0,0.0,0,1008.9,2,8,6.8,95
"2020-02-20 06:32:00",8.9,8.1,1.0,0.0,0,1008.8,1,5,7.7,95
"2020-02-20 06:33:00",8.9,8.1,1.0,0.0,0,1008.8,1,5,7.7,95
"2020-02-20 06:34:00",8.9,8.1,1.0,0.0,0,1008.8,1,3,"",95
"2020-02-20 06:35:00",8.8,8.0,1.0,0.0,0,1008.8,1,4,8.1,95
"2020-02-20 06:36:00",8.9,8.1,1.0,0.0,0,1008.7,2,8,6.7,95
"2020-02-20 06:37:00",8.9,8.1,1.0,0.0,0,1008.7,2,5,7.6,95
"2020-02-20 06:38:00",8.9,8.1,1.0,0.0,0,1008.6,4,8,6.7,95
"2020-02-20 06:39:00",8.9,8.1,1.0,0.0,0,1008.6,4,6,7.3,95
"2020-02-20 06:40:00",8.8,8.0,1.2,0.0,0,1008.7,2,4,8.0,95
"2020-02-20 06:41:00",8.9,8.1,1.2,0.0,0,1008.7,1,3,"",95
"2020-02-20 06:42:00",8.8,8.0,1.2,0.0,0,1008.7,1,3,"",95
"2020-02-20 06:43:00",8.8,8.0,1.2,0.0,0,1008.7,4,9,6.6,95
"2020-02-20 06:44:00",8.9,8.1,1.2,0.0,0,1008.7,5,10,6.4,95
"2020-02-20 06:45:00",8.9,8.1,1.2,0.0,0,1008.6,4,11,6.2,95
"2020-02-20 06:46:00",8.8,8.0,1.2,0.0,0,1008.6,4,7,7.0,95
"2020-02-20 06:47:00",8.9,8.1,1.2,0.0,0,1008.5,2,4,8.0,95
"2020-02-20 06:48:00",8.9,8.1,1.2,0.0,0,1008.5,3,5,7.6,95
"2020-02-20 06:49:00",8.9,8.1,1.2,0.0,0,1008.6,5,12,6.1,95
"2020-02-20 06:50:00",8.9,8.1,1.2,0.0,0,1008.5,3,6,7.4,95
"2020-02-20 06:51:00",8.9,8.1,1.2,0.0,0,1008.5,3,7,7.1,95
"2020-02-20 06:52:00",8.9,8.1,1.2,0.0,0,1008.4,1,4,8.1,95
"2020-02-20 06:53:00",8.9,8.1,1.2,0.0,0,1008.5,3,7,7.1,95